Flag for Canada Weather past 2 weeks in Barrie, Ontario, Canada

Now
70 °F

Partly sunny.


Feels Like: 70 °F
Forecast: 53 / 80 °F
Wind: 3 mph from Southeast

Location: Borden

Current Time: Jul 5, 2015 at 10:27:51 AM

Latest Report: Jul 5, 2015 at 10:00 AM


Visibility: 9 mi

Pressure: 30.12 "Hg

Humidity: 69%

Dew point: 59 °F

Location of BarrieLocation

Historic Weather in Barrie — Graph

°F

Barrie temperature yesterday

Maximum temperature yesterday: 79 °F (at 5:00 PM)
Minimum temperature yesterday: 46 °F (at 3:00 AM)
Average temperature yesterday: 63 °F

Past Weeks' High & Low Weather Summary

 TemperatureHumidityPressure
High82 °F (Jun 22, 3:00 PM)100% (Jun 22, 2:00 AM)30.13 "Hg (Jun 22, 2:00 AM)
Low37 °F (Jul 3, 5:00 AM)33% (Jun 26, 2:00 PM)29.60 "Hg (Jun 23, 5:00 AM)
Average62 °F81%29.91 "Hg
* Reported Jun 20 9:00 AM — Jul 5 9:00 AM, Barrie, Weather by CustomWeather, © 2015

Note: Actual official high and low records may vary slightly from our data, if they occured in-between our weather recording intervals... More about our weather records

Advertising

Barrie weather history for previous 24 hours

 ConditionsComfort  
Time TempWeatherWind HumidityBarometerVisibility
9:00 AM
Sun, Jul 5
68 °FPassing clouds.3 mph69%30.11 "Hg9 mi
8:00 AM61 °FPassing clouds.No wind94%30.11 "Hg9 mi
7:00 AM54 °FSunny.No wind100%30.10 "Hg7 mi
6:00 AM50 °FPassing clouds.2 mph100%30.08 "Hg1 mi
5:46 AM50 °FPassing clouds.No wind100%30.08 "Hg1 mi
5:00 AM50 °FPassing clouds.No wind100%30.07 "Hg7 mi
4:03 AM50 °FPassing clouds.3 mph100%30.06 "Hg8 mi
3:03 AM50 °FClear.No wind100%30.06 "Hg2 mi
2:00 AM54 °FClear.No wind100%30.06 "Hg9 mi
1:00 AM52 °FClear.No wind100%30.05 "Hg6 mi
12:00 AM54 °FClear.No wind100%30.03 "Hg9 mi
11:00 PM
Sat, Jul 4
57 °FClear.No wind94%30.02 "Hg9 mi
10:00 PM61 °FSunny.3 mph88%30.00 "Hg9 mi
9:00 PM66 °FSunny.2 mph73%29.98 "Hg9 mi
8:00 PM72 °FSunny.6 mph65%29.96 "Hg9 mi
7:00 PM75 °FScattered clouds.6 mph57%29.96 "Hg9 mi
6:00 PM79 °FPartly sunny.6 mph48%29.95 "Hg9 mi
5:00 PM79 °FOvercast.3 mph45%29.95 "Hg9 mi
4:00 PM77 °FScattered clouds.3 mph47%29.95 "Hg9 mi
3:00 PM77 °FScattered clouds.6 mph47%29.95 "Hg9 mi
2:00 PM77 °FPassing clouds.5 mph47%29.95 "Hg9 mi
1:00 PM75 °FPassing clouds.3 mph47%29.95 "Hg9 mi
12:00 PM72 °FSunny.2 mph57%29.96 "Hg9 mi
11:00 AM72 °FPassing clouds.5 mph53%29.96 "Hg9 mi
10:00 AM68 °FSunny.3 mph64%29.96 "Hg9 mi
Weather by CustomWeather, © 2015

See weather overviewHow to use our weather pages